Location: Astronomy Club of Akron Observatory
(40.9700°N, 81.5606°W)
Time: 02:31:32
(UTC-04:00)

ISS - Pass Details

Date: 20 July 2018
Orbit: 402 x 408 km, 51.6° (Epoch: 16 July)

Event Time Altitude Azimuth Distance (km) Brightness Sun altitude
Rises 02:25:21 0° 307° (NW) 2,328 0.3 -27.2°
Reaches altitude 10° 02:28:12 10° 334° (NNW) 1,468 -0.4 -27.0°
Maximum altitude 02:30:03 14° 8° (N) 1,248 -0.5 -26.9°
Drops below altitude 10° 02:31:53 10° 43° (NE) 1,468 -0.2 -26.9°
Sets 02:34:44 0° 70° (ENE) 2,329 0.5 -26.7°
